Skip Page Navigation
NASA JPL Caltech
NASA Logo - Jet Propulsion Laboratory + View the NASA Portal
+ Near-Earth Object (NEO) Program
Search JPL
JPL Home Earth Solar System Stars & Galaxies Technology
JPL Solar System Dynamics
BODIES ORBITS EPHEMERIDES TOOLS PHYSICAL DATA DISCOVERY FAQ SITE MAP
JPL Small-Body Database Browser
Search: [ help ]  
13647 Rey (1996 HR24)
Classification: Main-belt Asteroid          SPK-ID: 2013647
Ephemeris | Orbit Diagram | Orbital Elements | Physical Parameters | Discovery Circumstances | Close-Approach Data ]

[ show orbit diagram ]
Orbital Elements at Epoch 2456400.5 (2013-Apr-18.0) TDB
Reference: JPL 1 (heliocentric ecliptic J2000)
 Element Value Uncertainty (1-sigma)   Units 
e .174941624973164 7.4038e-08  
a 3.187843184219809 5.5549e-08 AU
q 2.63015671741277 2.4583e-07 AU
i 4.592006482237046 8.2916e-06 deg
node 85.92044515545676 0.00013068 deg
peri 223.9520184753285 0.0001353 deg
M 291.2710479349995 3.9378e-05 deg
tp 2456797.399975861417
(2014-May-19.89997586)
0.00023349 JED
period 2078.949074837882
5.69
5.434e-05
1.488e-07
d
yr
n .1731644148272718 4.5262e-09 deg/d
Q 3.745529651026847 6.5267e-08 AU
  Orbit Determination Parameters
   # obs. used (total)      484  
   data-arc span      7952 days (21.77 yr)  
   first obs. used      1991-07-15  
   last obs. used      2013-04-22  
   planetary ephem.      DE405  
   SB-pert. ephem.      SB405-CPV-2  
   condition code      0  
   fit RMS      .57017  
   data source      ORB  
   producer      Otto Matic  
   solution date      2013-Apr-29 13:53:13  

Additional Information
 Earth MOID = 1.61798 AU 
 T_jup = 3.169 
[ show covariance matrix ]

Ephemeris | Orbit Diagram | Orbital Elements | Physical Parameters | Discovery Circumstances | Close-Approach Data ]

Physical Parameter Table
Parameter Symbol Value Units Sigma Reference Notes
absolute magnitude H 13.1 mag n/a PDS3 (MPC 38356)  

13647 Rey           Discovered 1996 Apr. 20 by E. W. Elst at the European Southern Observatory.
In Amsterdam from 1744 onward, Marc-Michel Rey (1720-1780) was a major figure in the publishing history of the Enlightenment. Manuscripts were smuggled out of France and found their way to Amsterdam, where they were printed and brought back to France clandestinely.
NOTE: some special characters may not display properly (any characters within {} are an attempt to place the proper accent above a character)
Reference: 20050919/MPCPages.arcLast Updated: 2005-09-26

[ show close-approach data ]
Alternate Designations
 1996 HR24 = 1991 NW7 
Ephemeris | Orbit Diagram | Orbital Elements | Physical Parameters | Discovery Circumstances | Close-Approach Data ]
ABOUT SSD CREDITS/AWARDS PRIVACY/COPYRIGHT GLOSSARY LINKS
FirstGov 2013-Jun-18 06:45 UT
(server date/time)  
NASA Home Page
Site Manager:   Donald K. Yeomans
Webmaster  Alan B. Chamberlin